www.pogodaiklimat.ru

Погода и климат >> Архив погоды >> Бангладеш >> Рангамати


ПОГОДА в Рангамати

  • Прогноз погоды в Рангамати
  • Монитор погоды в Рангамати

АРХИВ ПОГОДЫ в Рангамати

Время (UTC), дата Ветер
(напр.,м/с)
 
Видим.   Явления Облачность Т
(С)
Тd
(С)
f
(%)
Тe
(С)
Тes
(С)
Комфортность P
(гПа)
Po
(гПа)
Тmin
(С)
Tmax
(С)
R
(мм)
R24
(мм)
S
(см)
03 16.09 ЮЗ 1 5000 м 8/3 480 м
[Sc As trans]
+30.5 +24.0 68 +42 +47 опасность
перегрева
1008.0 1000.2 +25.5
06 16.09 штиль 0 5000 м 8/3 480 м
[Sc As trans]
+33.0 +22.0 52 +41 +52 опасность
перегрева
1007.7 999.9
09 16.09 В 1 6000 м 5/3 800 м
[Cu hum Ac trans]
+34.0 +22.0 50 +43 +49 опасность
перегрева
1005.1 997.5
12 16.09 штиль 0 4000 м 5/3 800 м
[Cu hum Ac trans]
+30.2 +26.0 78 +45 +45 опасность
перегрева
1003.6 995.9 +34.6
15 16.09 Ю 1 3000 м 5/3 480 м
[Sc As trans]
+28.0 +25.0 84 +40 +40 очень
душно
1005.2 997.4
18 16.09 ЮВ 1 3000 м 5/3 480 м
[Sc As trans]
+27.8 +25.0 85 +40 +40 очень
душно
1006.5 998.7
00 17.09 штиль 0 4000 м 8/3 480 м
[Sc As trans]
+26.5 +26.0 97 +40 +40 очень
душно
1006.9 999.0
03 17.09 СВ 1 5000 м 6/3 480 м
[Sc As trans]
+31.0 +25.0 70 +44 +51 опасность
перегрева
1009.0 1001.2 +26.0
06 17.09 СВ 1 5000 м 6/3 480 м
[Sc As trans]
+34.0 +23.0 53 +44 +57 опасность
перегрева
1008.5 1000.8
09 17.09 штиль 0 5000 м 5/3 800 м
[Cu hum Ac trans]
+34.2 +19.0 41 +39 +46 очень
душно
1006.4 998.7
12 17.09 штиль 0 4000 м 5/3 800 м
[Cu hum Ac trans]
+30.5 +27.0 82 +48 +48 опасность
перегрева
1006.3 998.6 +34.7
15 17.09 В 1 3000 м 5/3 480 м
[Sc As trans]
+28.5 +26.0 86 +43 +43 опасность
перегрева
1007.6 999.8
00 18.09 штиль 0 4000 м гроза без осадков 9/4 450 м
[Cb calv As trans]
+25.5 +25.0 97 +36 +36 очень
душно
1009.7 1001.8 51
03 18.09 штиль 0 5000 м 6/3 480 м
[Sc As trans]
+30.0 +23.0 66 +40 +47 очень
душно
1011.0 1003.2 +24.8
06 18.09 С 1 5000 м 4/0
[Ac trans]
+33.0 +21.0 49 +40 +58 опасность
солнечного
удара
1009.7 1001.9
09 18.09 СЗ 1 5000 м 3/1 800 м
[Cu med, cong As trans]
+35.0 +23.0 50 +45 +54 опасность
перегрева
1008.4 1000.7
12 18.09 штиль 0 4000 м 3/0
[Ac trans]
+32.0 +28.0 79 +52 +52 опасность
перегрева
1008.0 1000.3 +35.5
15 18.09 штиль 0 3000 м 8/3 480 м
[Sc As trans]
+29.0 +26.0 84 +44 +44 опасность
перегрева
1010.0 1002.2
21 18.09 штиль 0 5000 м 9/4 480 м
[Sc As trans]
+26.8 +24.0 85 +37 +37 очень
душно
1010.1 1002.2
00 19.09 Ю 1 4000 м слаб. дождь 9/4 270 м
[Frnb As trans]
+25.2 +24.0 93 +35 +35 очень
душно
1010.5 1002.5 2
03 19.09 ЮЗ 1 5000 м {дождь} 6/3 480 м
[Sc As trans]
+28.5 +23.0 72 +38 +45 очень
душно
1011.2 1003.4 +24.8
06 19.09 СВ 1 5000 м {дождь} 5/3 480 м
[Cu hum Ac trans]
+34.0 +23.0 53 +44 +58 опасность
перегрева
1010.5 1002.8 0.2
09 19.09 С 1 5000 м 4/1 800 м
[Cu hum Ac trans]
+35.0 +25.0 56 +48 +56 опасность
перегрева
1007.1 999.4
12 19.09 С 1 4000 м 8/4 480 м
[Sc As trans]
+30.6 +22.0 60 +39 +39 очень
душно
1008.3 1000.5 +35.2
15 19.09 Ю 1 3000 м гроза без осадков 9/4 480 м
[Cb calv As trans]
+28.6 +26.0 86 +43 +43 опасность
перегрева
1009.8 1002.0
00 20.09 Ю 1 4000 м 9/4 480 м
[Sc As trans]
+25.0 +24.0 94 +34 +34 очень
душно
1009.9 1002.0
03 20.09 штиль 0 5000 м 9/4 480 м
[Sc As trans]
+29.5 +23.0 68 +39 +43 очень
душно
1011.0 1003.2 +24.5
06 20.09 СВ 1 5000 м {дождь} 6/3 480 м
[Sc As trans]
+33.2 +20.0 46 +39 +52 опасность
солнечного
удара
1009.7 1002.0 0.7
09 20.09 СВ 1 5000 м 4/3 480 м
[Sc]
+34.5 +21.0 45 +42 +49 опасность
перегрева
1005.5 997.9
12 20.09 штиль 0 4000 м 5/0
[As trans]
+31.0 +27.0 79 +48 +48 опасность
перегрева
1006.2 998.4 +35.0
15 20.09 штиль 0 4000 м 3/0
[As trans]
+28.7 +27.0 91 +45 +45 опасность
перегрева
1008.2 1000.3
18 20.09 штиль 0 3000 м 3/0
[As trans]
+27.2 +26.0 93 +41 +41 опасность
перегрева
1008.7 1000.8
00 21.09 С 1 4000 м гроза без осадков 8/4 800 м
[Cb calv As trans]
+26.0 +24.0 89 +36 +36 очень
душно
1008.1 1000.2
03 21.09 штиль 0 5000 м слаб. дождь 10/5 270 м
[Frnb As op]
+26.0 +25.0 94 +37 +38 очень
душно
1010.9 1003.0 +25.7
06 21.09 ЮВ 1 5000 м {дождь} 9/4 480 м
[Sc As trans]
+30.5 +25.0 73 +44 +51 опасность
перегрева
1008.9 1001.1 8
09 21.09 СЗ 1 5000 м 6/3 480 м
[Sc As trans]
+33.0 +23.0 56 +43 +49 опасность
перегрева
1005.8 998.0
12 21.09 штиль 0 4000 м 8/4 480 м
[Sc diur, vesp As trans]
+30.0 +26.0 79 +45 +45 опасность
перегрева
1006.7 998.7 +35.0
15 21.09 штиль 0 3000 м гроза без осадков 9/5 480 м
[Cb calv As trans]
+27.4 +26.0 92 +41 +41 опасность
перегрева
1009.8 1002.0 0.6
18 21.09 СЗ 1 3000 м {гроза, дождь} 8/4 480 м
[Sc As trans]
+26.4 +25.0 92 +38 +38 очень
душно
1009.6 1001.7 1
00 22.09 штиль 0 4000 м 8/3 480 м
[Sc As trans]
+26.0 +25.0 94 +37 +37 очень
душно
1010.1 1002.2
03 22.09 СЗ 1 5000 м 4/3 480 м
[Sc]
+31.0 +23.0 62 +41 +49 опасность
перегрева
1010.9 1003.2 +25.5
06 22.09 ЮВ 1 6000 м 5/3 480 м
[Sc Ac trans]
+34.0 +22.0 50 +43 +56 опасность
перегрева
1009.6 1001.9
09 22.09 ЮВ 2 5000 м 8/5 480 м
[Cb calv Ac As]
+33.8 +22.0 50 +42 +45 опасность
перегрева
1007.0 999.3
12 22.09 штиль 0 4000 м 9/4 480 м
[Sc diur, vesp As trans]
+26.0 +23.0 84 +35 +35 очень
душно
1009.0 1001.1 +34.8
15 22.09 СЗ 1 3000 м {гроза, дождь} 9/4 480 м
[Sc As trans]
+25.6 +25.0 96 +36 +36 очень
душно
1011.3 1003.4
18 22.09 Ю 1 3000 м гроза, ливневой дождь 10/5 450 м
[Cb calv As op]
+24.0 +23.0 94 +32 +32 очень
душно
1013.3 1005.3 5

 

Местоположение метеостанции Рангамати (Бангладеш): широта 22.53 долгота 92.20 высота над уровнем моря 42 м.

В архиве по умолчанию представлена погода в Рангамати за последнюю неделю. Архивные данные за месяц целиком и за предыдущие месяцы, начиная с января 2011 года, Вы можете получить, выбрав интересующий диапазон дат из раскрывающегося списка и нажав кнопку "Ввод!".


*Определитесь, кто Вы:
робот инопланетянин человек

Внимание! Время в таблицах - всемирное. Для получения местного времени необходимо прибавить поправку, которая равна 6.5 ч.

Смотрите также архив погоды в соседних городах и на ближайших метеорологических станциях:

Погода в Читтагонге (Бангладеш) (49 км)
Погода в Ситакунду (Бангладеш) (52 км)
Погода в Сандвипе (Бангладеш) (79 км)
Погода в Кутапдии (Бангладеш) (87 км)
Погода в Фени (Бангладеш) (97 км)
Погода в Хатии (Бангладеш) (114 км)
Погода в Маиидиcурте (Бангладеш) (119 км)
Погода в Кокс-Базаре (Бангладеш) (125 км)
Погода в Аиджале (Мизорам, Индия) (144 км)
Погода в Комилле (Бангладеш) (145 км)

Пояснения к столбцам:

Ветер - указаны скорость ветра в м/с - средняя за 10 мин, порывы в срок и между сроками (в фигурных скобках) и направление, откуда дует ветер: С - северный, СВ - северо-восточный, В - восточный, ЮВ - юго-восточный, Ю - южный, ЮЗ - юго-западный, З - западный, СЗ - северо-западный.
Видимость - горизонтальная дальность видимости в метрах или километрах. При видимости от 1 до 10 км при отсутствии осадков обычно наблюдается дымка, при ухудшении видимости до 1 км и менее - туман. В сухую погоду видимость может ухудшаться дымом, пылью или мглою.
Явления - указаны атмосферные явления, наблюдавшиеся в срок или в последний час перед сроком; фигурными скобками обозначены явления, наблюдавшиеся между сроками (за 1-3 часа до срока); квадратными скобками обозначены град или гололедные отложения с указанием их диаметра в мм.
Облачность - указаны через наклонную черту общая и нижняя облачность в баллах и высота нижней границы облаков в метрах; квадратными скобками обозначены формы облаков: Ci - перистые, Cs - перисто-слоистые, Cc - перисто-кучевые, Ac - высококучевые, As - высокослоистые, Sc - слоисто-кучевые, Ns - слоисто-дождевые, Cu - кучевые, Cb - кучево-дождевые. Подробнее классификацию облаков см. в Атласе облаков (PDF).
T - Температура воздуха - температура, измеренная на высоте 2 м над землей.
Td - Температура точки росы - температура, при понижении до которой содержащийся в воздухе водяной пар достигнет насыщения.
f - Относительная влажность воздуха - влажноcть воздуха, измеренная на высоте 2 м над землей.
Te - Эффективная температура - температура, которую ощущает одетый по сезону человек в тени. Характеристика душности погоды. При расчете учитывается влияние влажности воздуха и скорости ветра на теплоощущения человека.
Tes - Эффективная температура на солнце - температура, которую ощущает человек, с поправкой на солнечный нагрев. Характеристика знойности погоды. Зависит от высоты солнца над горизонтом, облачности и скорости ветра. Ночью, в пасмурную погоду, а также при ветре 12 м/с и более поправка равна нулю.
P - Атмосферное давление - приведенное к уровню моря атмосферное давление.
Po - Атмосферное давление - измеренное на уровне метеостанции атмосферное давление.
Tmin - Минимальная температура - минимум температуры воздуха на высоте 2 м над землей.
Tmax - Максимальная температура - максимум температуры воздуха на высоте 2 м над землей.
R - Количество осадков - Количество выпавших осадков за период времени, мм. При наведении курсора мыши на число - период времени, за который выпало указанное количество осадков.
R24 - Количество осадков - Количество выпавших осадков за 24 часа, мм.
S - Снежный покров - Высота снежного покрова, см. При наведении курсора мыши на число - состояние снежного покрова и степень покрытия местности в баллах.